Weather History for Wise, VA

Change the Weather History Date:

Thursday, May 8, 2014

  Actual Average Record
Temperature  
Mean Temperature 71 °F -  
Max Temperature 80 °F 68 °F 80 °F (2004)
Min Temperature 62 °F 49 °F 46 °F (1999)
Cooling Degree Days 6    
Growing Degree Days 21 (Base 50)    
Moisture  
Dew Point 46 °F    
Average Humidity 42    
Maximum Humidity 59    
Minimum Humidity 21    
Precipitation  
Precipitation 0.00 in - - ()
Sea Level Pressure  
Sea Level Pressure 30.22 in    
Wind  
Wind Speed 10 mph (SW)    
Max Wind Speed 17 mph    
Max Gust Speed 24 mph    
Visibility 10 miles    
Events      
Averages and records for this station are not official NWS values.
T = Trace of Precipitation, MM = Missing Value Source: NWS Daily Summary

Daily Weather History Graph

Daily Weather History Graph

Search for Another Location

Airport:

Trip Planner

Search our weather history database for the weather conditions in past years. The results will help you decide how hot, cold, wet, or windy it might be!

Date:

Astronomy

May. 08, 2014 Rise Set
Actual Time 6:28 AM EDT 8:25 PM EDT
Civil Twilight 6:00 AM EDT 8:53 PM EDT
Nautical Twilight 5:25 AM EDT 9:28 PM EDT
Astronomical Twilight 4:48 AM EDT 10:05 PM EDT
Moon 2:33 PM EDT (5/8) 2:49 AM EDT (5/8)
Length of Visible Light 14h 53m
Length of Day
13h 56m
Waxing Gibbous, 64% of the Moon is Illuminated
May 8
Waxing Gibbous
May 14
Full
May 21
Last Quarter
May 28
New
Jun 5
First Quarter

Hourly Weather History & Observations

Time (EDT) Temp. Dew Point Humidity Pressure Visibility Wind Dir Wind Speed Gust Speed Precip Events Conditions
12:15 AM 66.2 °F 44.6 °F 46% 30.16 in 10.0 mi SSW 5.8 mph - N/A   Clear
12:35 AM 66.2 °F 46.4 °F 49% 30.16 in 10.0 mi SSW 6.9 mph - N/A   Clear
12:55 AM 64.4 °F 44.6 °F 49% 30.16 in 10.0 mi SW 8.1 mph - N/A   Clear
1:15 AM 64.4 °F 44.6 °F 49% 30.16 in 10.0 mi SSW 11.5 mph - N/A   Clear
1:35 AM 66.2 °F 42.8 °F 43% 30.16 in 10.0 mi SSW 8.1 mph - N/A   Clear
1:55 AM 66.2 °F 44.6 °F 46% 30.16 in 10.0 mi SW 10.4 mph - N/A   Clear
2:15 AM 68.0 °F 44.6 °F 43% 30.16 in 10.0 mi SW 12.7 mph - N/A   Clear
2:35 AM 68.0 °F 46.4 °F 46% 30.16 in 10.0 mi SW 11.5 mph - N/A   Clear
2:55 AM 66.2 °F 44.6 °F 46% 30.16 in 10.0 mi SW 10.4 mph 17.3 mph N/A   Clear
3:15 AM 64.4 °F 44.6 °F 49% 30.17 in 10.0 mi SW 12.7 mph 17.3 mph N/A   Clear
3:35 AM 66.2 °F 44.6 °F 46% 30.17 in 10.0 mi SW 13.8 mph 19.6 mph N/A   Clear
3:55 AM 64.4 °F 44.6 °F 49% 30.17 in 10.0 mi SW 12.7 mph - N/A   Clear
4:15 AM 64.4 °F 46.4 °F 52% 30.18 in 10.0 mi SW 11.5 mph 17.3 mph N/A   Clear
4:35 AM 64.4 °F 46.4 °F 52% 30.19 in 10.0 mi SW 13.8 mph 19.6 mph N/A   Clear
4:55 AM 64.4 °F 46.4 °F 52% 30.20 in 10.0 mi SW 13.8 mph 18.4 mph N/A   Clear
5:15 AM 64.4 °F 46.4 °F 52% 30.20 in 10.0 mi SW 12.7 mph 17.3 mph N/A   Clear
5:35 AM 64.4 °F 48.2 °F 56% 30.20 in 10.0 mi SW 10.4 mph - N/A   Clear
5:55 AM 64.4 °F 46.4 °F 52% 30.21 in 10.0 mi SW 11.5 mph - N/A   Clear
6:15 AM 64.4 °F 48.2 °F 56% 30.21 in 10.0 mi SW 12.7 mph - N/A   Clear
6:35 AM 64.4 °F 48.2 °F 56% 30.22 in 10.0 mi SW 12.7 mph - N/A   Clear
6:55 AM 62.6 °F 48.2 °F 59% 30.22 in 10.0 mi SW 13.8 mph - N/A   Clear
7:15 AM 64.4 °F 50.0 °F 59% 30.22 in 10.0 mi SW 11.5 mph - N/A   Clear
7:35 AM 64.4 °F 50.0 °F 59% 30.23 in 10.0 mi WSW 12.7 mph 17.3 mph N/A   Clear
7:55 AM 64.4 °F 50.0 °F 59% 30.24 in 10.0 mi WSW 12.7 mph 20.7 mph N/A   Clear
8:15 AM 66.2 °F 50.0 °F 56% 30.24 in 10.0 mi WSW 12.7 mph - N/A   Clear
8:35 AM 68.0 °F 50.0 °F 52% 30.25 in 10.0 mi SW 15.0 mph 20.7 mph N/A   Clear
8:55 AM 68.0 °F 50.0 °F 52% 30.26 in 10.0 mi WSW 12.7 mph 21.9 mph N/A   Clear
9:15 AM 68.0 °F 50.0 °F 52% 30.27 in 10.0 mi WSW 10.4 mph 19.6 mph N/A   Clear
9:35 AM 68.0 °F 51.8 °F 56% 30.28 in 10.0 mi SW 11.5 mph 21.9 mph N/A   Clear
9:55 AM 69.8 °F 51.8 °F 53% 30.28 in 10.0 mi WSW 13.8 mph 23.0 mph N/A   Clear
10:15 AM 69.8 °F 51.8 °F 53% 30.28 in 10.0 mi SW 15.0 mph 24.2 mph N/A   Clear
10:35 AM 71.6 °F 51.8 °F 50% 30.28 in 10.0 mi SW 13.8 mph 19.6 mph N/A   Clear
10:55 AM 71.6 °F 51.8 °F 50% 30.28 in 10.0 mi SW 17.3 mph 21.9 mph N/A   Clear
11:15 AM 71.6 °F 50.0 °F 46% 30.29 in 10.0 mi SSW 11.5 mph 18.4 mph N/A   Clear
11:35 AM 73.4 °F 51.8 °F 47% 30.29 in 10.0 mi SSW 10.4 mph - N/A   Clear
11:55 AM 73.4 °F 51.8 °F 47% 30.28 in 10.0 mi SW 6.9 mph - N/A   Clear
12:15 PM 73.4 °F 50.0 °F 44% 30.28 in 10.0 mi SSW 9.2 mph - N/A   Clear
12:35 PM 73.4 °F 50.0 °F 44% 30.28 in 10.0 mi SW 8.1 mph - N/A   Clear
12:55 PM 75.2 °F 50.0 °F 41% 30.27 in 10.0 mi SW 10.4 mph 17.3 mph N/A   Clear
1:15 PM 75.2 °F 46.4 °F 36% 30.26 in 10.0 mi SW 15.0 mph - N/A   Clear
1:35 PM 77.0 °F 41.0 °F 28% 30.26 in 10.0 mi WSW 13.8 mph 23.0 mph N/A   Clear
1:55 PM 77.0 °F 41.0 °F 28% 30.25 in 10.0 mi WSW 13.8 mph 21.9 mph N/A   Clear
2:15 PM 77.0 °F 41.0 °F 28% 30.25 in 10.0 mi WSW 13.8 mph - N/A   Clear
2:35 PM 78.8 °F 42.8 °F 28% 30.24 in 10.0 mi WSW 12.7 mph - N/A   Clear
2:55 PM 78.8 °F 41.0 °F 26% 30.23 in 10.0 mi West 15.0 mph 23.0 mph N/A   Clear
3:15 PM 78.8 °F 41.0 °F 26% 30.22 in 10.0 mi WSW 15.0 mph 19.6 mph N/A   Clear
3:35 PM 78.8 °F 35.6 °F 21% 30.22 in 10.0 mi West 13.8 mph - N/A   Clear
3:55 PM 80.6 °F 41.0 °F 24% 30.21 in 10.0 mi WSW 16.1 mph 19.6 mph N/A   Clear
4:35 PM 80.6 °F 41.0 °F 24% 30.19 in 10.0 mi WSW 10.4 mph 18.4 mph N/A   Clear
4:55 PM 80.6 °F 42.8 °F 26% 30.19 in 10.0 mi WSW 8.1 mph - N/A   Clear
5:15 PM 80.6 °F 44.6 °F 28% 30.18 in 10.0 mi SW 8.1 mph - N/A   Clear
5:35 PM 80.6 °F 42.8 °F 26% 30.19 in 10.0 mi SW 11.5 mph - N/A   Clear
5:55 PM 80.6 °F 41.0 °F 24% 30.19 in 10.0 mi WSW 11.5 mph 16.1 mph N/A   Clear
6:15 PM 80.6 °F 37.4 °F 21% 30.19 in 10.0 mi WSW 11.5 mph - N/A   Clear
6:35 PM 78.8 °F 37.4 °F 23% 30.19 in 10.0 mi SW 9.2 mph - N/A   Clear
6:55 PM 78.8 °F 37.4 °F 23% 30.19 in 10.0 mi WSW 9.2 mph - N/A   Clear
7:15 PM 77.0 °F 41.0 °F 28% 30.19 in 10.0 mi WSW 8.1 mph - N/A   Clear
7:35 PM 75.2 °F 42.8 °F 31% 30.19 in 10.0 mi WSW 8.1 mph - N/A   Clear
7:55 PM 73.4 °F 42.8 °F 33% 30.19 in 10.0 mi SW 9.2 mph - N/A   Clear
8:15 PM 71.6 °F 42.8 °F 35% 30.20 in 10.0 mi SW 6.9 mph - N/A   Clear
8:35 PM 69.8 °F 44.6 °F 40% 30.20 in 10.0 mi SSW 4.6 mph - N/A   Clear
8:55 PM 69.8 °F 44.6 °F 40% 30.21 in 10.0 mi SSW 3.5 mph - N/A   Clear
9:15 PM 69.8 °F 44.6 °F 40% 30.21 in 10.0 mi South 3.5 mph - N/A   Clear
9:35 PM 69.8 °F 44.6 °F 40% 30.21 in 10.0 mi SSW 4.6 mph - N/A   Clear
9:55 PM 68.0 °F 44.6 °F 43% 30.21 in 10.0 mi SSW 4.6 mph - N/A   Clear
10:15 PM 68.0 °F 44.6 °F 43% 30.22 in 10.0 mi SSW 4.6 mph - N/A   Clear
10:35 PM 68.0 °F 44.6 °F 43% 30.22 in 10.0 mi SSW 5.8 mph - N/A   Clear
10:55 PM 68.0 °F 46.4 °F 46% 30.22 in 10.0 mi SSW 5.8 mph - N/A   Clear
11:15 PM 68.0 °F 46.4 °F 46% 30.22 in 10.0 mi SSW 4.6 mph - N/A   Clear
11:35 PM 66.2 °F 46.4 °F 49% 30.22 in 10.0 mi SSW 4.6 mph - N/A   Clear
11:55 PM 66.2 °F 46.4 °F 49% 30.21 in 10.0 mi SSW 4.6 mph - N/A   Clear